CP-7 (DAVE)

Last updated on Tue Feb 05 2019 03:04:17 GMT+0000 (Greenwich Mean Time)

1 43615U 18070C 19035.82168724 .00002419 00000-0 67031-4 0 9998 2 43615 93.0399 308.3541 0019341 100.1325 260.2111 15.36859155 21844
UTC large
Height (km)
Speed (km/s)
/
Latitude / Longitude
Inclination (degrees)
Orbital Period (minutes)
Azimuth
Elevation
Range (km)
Doppler Factor

Next 0 passes for location: London (51.5072 / 0.1276)

Sorry there are no passes over London.